Location: Banff
(51.1667°N, 115.5667°W)
Time: 13:45:46
(UTC+00:00)

Vanguard 1 Rocket - Pass Details

Date: 04 December 2020
Orbit: 655 x 4222 km, 34.3° (Epoch: 23 January)

Event Time Altitude Azimuth Distance (km) Brightness Sun altitude
Rises 10:56:35 0° 262° (W) 8,420 - -41.4°
Reaches altitude 10° 11:02:50 10° 257° (WSW) 7,427 - -40.4°
Exits shadow 11:21:32 42° 218° (SW) 4,652 10.5 -37.6°
Maximum altitude 11:25:41 45° 196° (SSW) 4,284 10.4 -37.0°
Drops below altitude 10° 11:40:47 10° 130° (SE) 5,076 11.6 -34.6°
Sets 11:44:06 0° 123° (ESE) 5,683 12.1 -34.1°
